User: anonymous   Login
Location: Melbourne
(37.8170°S, 144.9670°E)
Time: 23:24:41
(UTC+11:00)
Language:

ADEOS Rocket - Orbit

View from above orbital plane
View from above orbital plane
View from above satellite
View from above satellite

Ground track
Ground track

The orbit data is extracted from the following two-line orbital elements,

1 24279U 96046C   15057.56711848  .00000035  00000-0  92114-4 0  9996
2 24279 098.7112 098.1538 0299217 276.2252 253.4573 13.47015021910939
Epoch (UTC): 26 February 2015 13:36:39
Eccentricity: 0.0299217
inclination: 98.7112°
perigee height: 860 km
apogee height: 1306 km
right ascension of ascending node: 98.1538°
argument of perigee: 276.2252°
revolutions per day: 13.47015021
mean anomaly at epoch: 253.4573°
orbit number at epoch: 91093

The dashed part of the orbit path shows where the satellite is in the earth's shadow,  

DLR